{"data":{"norad_id":51948,"intl_designator":"2022-023C","name":"2022-023C","alt_names":[],"object_type":"PAYLOAD","status":"ACTIVE","operator":null,"country":"PRC","launch_date":"2022-03-05","launch_site_code":"XICLF","launch_vehicle":null,"mission":null,"orbit_class":"UNKNOWN","rcs_meters":null,"size_class":null,"mass_kg":null,"dimensions":null,"purposes":[],"wikipedia_slug":null,"has_3d_model":false,"image_url":null,"decayed_at":null,"tle_current":{"epoch":"2026-05-25T02:42:57.733344Z","epoch_age_seconds":62485,"freshness":"FRESH","line1":"1 51948U 22023C   26145.11316821  .00016058  00000+0  69643-3 0  9997","line2":"2 51948  63.4960 349.5398 0100653 350.1131   9.7999 15.18009454234219","mean_motion":15.18009454,"eccentricity":0.0100653,"inclination_deg":63.496,"raan_deg":349.5398,"arg_perigee_deg":350.1131,"mean_anomaly_deg":9.7999,"bstar":0.00069643,"rev_number":23421,"period_min":94.861069290811,"perigee_km":442.5073539357,"apogee_km":581.20707143357,"semimajor_km":6889.9942126846,"source":"CELESTRAK","updated_at":"2026-05-25T13:37:57.569561Z"}}}